Date String (YYYY-MM-DD hh:mm:ss) UTC,Instrument flags,Ambient pressure (hPa),Sample flow (lpm),Bypass flow (lpm),Sample temperature (°C),Ambient temperature (°C),ASC tube jacket temperature (°C),LED temperature (°C),Box temperature (°C),Sample RH (%),Span deviation,Mass concentration (μg/m³),Mass concentration (μg/m³),Mass concentration (μg/m³)
DateTimeUTC,F1_M11,P_M11,Q1_M11,Q2_M11,T1_M11,T2_M11,T3_M11,T4_M11,T5_M11,U1_M11,ZSPAN_M11,X0_M11,X2_M11,X1_M11
2023-01-31 02:00:00,,0826.5,4.99,0.00,22.8,22.3,00.0,31.5,24.6,04.1,0000.4,0012.48,0007.64,0006.93
2023-01-31 02:01:00,,0826.5,5.01,0.00,22.7,21.9,00.0,31.5,24.5,04.1,0000.6,0013.33,0007.66,0006.94
2023-01-31 02:02:00,,0826.5,5.00,0.00,22.7,21.5,00.0,31.5,24.4,04.1,0000.7,0013.23,0007.67,0006.92
2023-01-31 02:03:00,,0826.5,5.01,0.00,22.6,21.2,00.0,31.5,24.3,04.1,0001.1,0013.25,0007.62,0006.91
2023-01-31 02:04:00,,0826.4,5.01,0.00,22.6,21.0,00.0,31.5,24.2,04.1,0001.0,0013.24,0007.62,0006.90
2023-01-31 02:05:00,,0826.5,4.98,0.00,22.5,20.8,00.0,31.5,24.2,04.2,0001.7,0013.47,0007.65,0006.90
2023-01-31 02:06:00,,0826.4,5.00,0.00,22.5,20.7,00.0,31.5,24.1,04.2,0001.2,0013.51,0007.65,0006.88
2023-01-31 02:07:00,,0826.5,4.99,0.00,22.5,20.6,00.0,31.4,24.1,04.2,0001.2,0013.76,0007.64,0006.86
2023-01-31 02:08:00,,0826.5,5.01,0.00,22.4,20.6,00.0,31.4,24.0,04.2,0001.4,0013.74,0007.59,0006.86
2023-01-31 02:09:00,,0826.5,5.00,0.00,22.5,21.5,00.0,31.4,24.3,04.2,0001.7,0013.24,0007.59,0006.86
2023-01-31 02:10:00,,0826.5,4.99,0.00,22.6,22.4,00.0,31.4,24.5,04.1,0001.4,0013.29,0007.60,0006.83
2023-01-31 02:11:00,,0826.5,5.00,0.00,22.7,23.1,00.0,31.4,24.7,04.1,0001.6,0013.30,0007.56,0006.77
2023-01-31 02:12:00,,0826.5,4.98,0.00,22.7,22.9,00.0,31.4,24.7,04.1,0001.1,0012.36,0007.50,0006.72
2023-01-31 02:13:00,,0826.5,4.98,0.00,22.7,22.4,00.0,31.5,24.6,04.1,0000.8,0012.11,0007.43,0006.70
2023-01-31 02:14:00,,0826.5,4.98,0.00,22.7,22.0,00.0,31.5,24.5,04.1,0000.3,0012.03,0007.44,0006.68
2023-01-31 02:15:00,,0826.5,4.99,0.00,22.7,21.6,00.0,31.5,24.4,04.1,0000.6,0011.92,0007.36,0006.64
2023-01-31 02:16:00,,0826.5,5.02,0.00,22.6,21.3,00.0,31.5,24.3,04.1,0000.4,0011.36,0007.32,0006.61
2023-01-31 02:17:00,,0826.5,4.98,0.00,22.6,21.0,00.0,31.5,24.2,04.1,0001.0,0011.27,0007.35,0006.62
2023-01-31 02:18:00,,0826.6,4.99,0.00,22.5,20.9,00.0,31.5,24.2,04.1,0001.2,0011.16,0007.34,0006.59
2023-01-31 02:19:00,,0826.7,5.01,0.00,22.5,20.7,00.0,31.5,24.1,04.1,0000.3,0011.04,0007.35,0006.58
2023-01-31 02:20:00,,0826.7,4.99,0.00,22.4,20.7,00.0,31.4,24.1,04.1,-000.5,0011.02,0007.33,0006.56
2023-01-31 02:21:00,,0826.7,4.99,0.00,22.4,20.6,00.0,31.4,24.0,04.1,-000.2,0010.83,0007.28,0006.55
2023-01-31 02:22:00,,0826.7,5.00,0.00,22.4,21.2,00.0,31.4,24.2,04.1,0000.5,0010.73,0007.25,0006.55
2023-01-31 02:23:00,,0826.7,5.00,0.00,22.5,22.2,00.0,31.4,24.4,04.1,0000.8,0010.70,0007.23,0006.56
2023-01-31 02:24:00,,0826.7,5.00,0.00,22.7,22.9,00.0,31.4,24.7,04.1,0000.9,0010.65,0007.21,0006.55
2023-01-31 02:25:00,,0826.7,5.00,0.00,22.7,23.0,00.0,31.4,24.8,04.1,0001.6,0010.55,0007.19,0006.53
2023-01-31 02:26:00,,0826.7,5.02,0.00,22.7,22.5,00.0,31.5,24.7,04.0,0001.6,0010.70,0007.20,0006.52
2023-01-31 02:27:00,,0826.7,5.00,0.00,22.7,22.0,00.0,31.5,24.5,04.1,0001.5,0010.85,0007.18,0006.51
2023-01-31 02:28:00,,0826.7,5.01,0.00,22.7,21.6,00.0,31.5,24.4,04.1,0001.9,0010.77,0007.14,0006.48
2023-01-31 02:29:00,,0826.7,4.98,0.00,22.6,21.3,00.0,31.5,24.3,04.1,0001.5,0011.32,0007.13,0006.47
2023-01-31 02:30:00,,0826.7,5.00,0.00,22.6,21.1,00.0,31.5,24.2,04.1,0001.7,0011.30,0007.07,0006.45
2023-01-31 02:31:00,,0826.7,5.00,0.00,22.5,20.9,00.0,31.5,24.2,04.1,0001.8,0011.31,0007.05,0006.42
2023-01-31 02:32:00,,0826.7,5.02,0.00,22.5,20.7,00.0,31.5,24.1,04.1,0001.8,0011.42,0007.09,0006.43
2023-01-31 02:33:00,,0826.7,4.99,0.00,22.4,20.5,00.0,31.4,24.0,04.1,0001.6,0011.64,0007.11,0006.45
2023-01-31 02:34:00,,0826.7,5.01,0.00,22.4,20.8,00.0,31.4,24.1,04.1,0001.7,0011.68,0007.14,0006.46
2023-01-31 02:35:00,,0826.7,5.01,0.00,22.5,21.8,00.0,31.4,24.3,04.2,0001.3,0011.71,0007.16,0006.46
2023-01-31 02:36:00,,0826.7,4.98,0.00,22.6,22.7,00.0,31.4,24.6,04.1,0000.8,0011.71,0007.16,0006.48
2023-01-31 02:37:00,,0826.7,4.98,0.00,22.7,23.1,00.0,31.4,24.7,04.1,0000.5,0011.76,0007.20,0006.51
2023-01-31 02:38:00,,0826.7,4.99,0.00,22.7,22.6,00.0,31.4,24.7,04.1,0000.5,0011.43,0007.21,0006.53
2023-01-31 02:39:00,,0826.7,4.99,0.00,22.7,22.0,00.0,31.5,24.5,04.1,0000.4,0011.71,0007.27,0006.58
2023-01-31 02:40:00,,0826.7,4.99,0.00,22.7,21.6,00.0,31.5,24.4,04.1,0000.8,0011.82,0007.31,0006.62
2023-01-31 02:41:00,,0826.6,5.02,0.00,22.6,21.2,00.0,31.5,24.3,04.2,0000.9,0011.69,0007.39,0006.66
2023-01-31 02:42:00,,0826.7,5.01,0.00,22.6,20.9,00.0,31.5,24.2,04.2,0001.0,0011.73,0007.42,0006.70
2023-01-31 02:43:00,,0826.7,4.99,0.00,22.5,20.7,00.0,31.4,24.1,04.2,0000.6,0011.73,0007.44,0006.72
2023-01-31 02:44:00,,0826.7,5.00,0.00,22.4,20.6,00.0,31.4,24.0,04.2,0000.5,0011.62,0007.45,0006.73
2023-01-31 02:45:00,,0826.7,4.99,0.00,22.4,20.7,00.0,31.4,24.0,04.2,0000.1,0011.69,0007.50,0006.75
2023-01-31 02:46:00,,0826.7,5.02,0.00,22.5,21.6,00.0,31.4,24.3,04.2,0000.3,0012.10,0007.53,0006.78
2023-01-31 02:47:00,,0826.7,5.00,0.00,22.6,22.4,00.0,31.4,24.5,04.2,0000.5,0012.34,0007.62,0006.82
2023-01-31 02:48:00,,0826.7,4.98,0.00,22.6,22.5,00.0,31.4,24.6,04.2,0000.6,0012.88,0007.70,0006.88
2023-01-31 02:49:00,,0826.6,4.98,0.00,22.6,21.9,00.0,31.4,24.4,04.2,0000.5,0013.02,0007.77,0006.93
2023-01-31 02:50:00,,0826.6,5.03,0.00,22.6,21.5,00.0,31.4,24.3,04.2,0000.4,0012.79,0007.78,0006.95
2023-01-31 02:51:00,,0826.7,4.99,0.00,22.5,21.1,00.0,31.4,24.1,04.2,0000.2,0012.32,0007.79,0006.97
2023-01-31 02:52:00,,0826.7,4.99,0.00,22.4,20.7,00.0,31.4,24.0,04.2,0000.0,0012.31,0007.83,0007.00
2023-01-31 02:53:00,,0826.6,5.00,0.00,22.4,20.4,00.0,31.4,23.8,04.2,0000.0,0012.35,0007.85,0007.01
2023-01-31 02:54:00,,0826.6,5.01,0.00,22.3,20.1,00.0,31.4,23.7,04.3,0000.5,0012.81,0007.88,0007.06
2023-01-31 02:55:00,,0826.5,4.99,0.00,22.3,20.7,00.0,31.3,23.9,04.3,0001.0,0012.88,0007.93,0007.09
2023-01-31 02:56:00,,0826.5,5.00,0.00,22.4,21.9,00.0,31.3,24.2,04.2,0001.0,0012.76,0007.92,0007.12
2023-01-31 02:57:00,,0826.5,4.99,0.00,22.5,22.7,00.0,31.3,24.4,04.2,0000.5,0012.44,0007.96,0007.15
2023-01-31 02:58:00,,0826.5,4.99,0.00,22.6,22.8,00.0,31.3,24.6,04.2,0000.3,0012.45,0007.98,0007.17
2023-01-31 02:59:00,,0826.5,5.01,0.00,22.6,22.1,00.0,31.4,24.4,04.2,0000.3,0011.94,0007.96,0007.17
